Location: ??????
(55.2000°N, 38.3000°E)
Time: 00:45:32
(UTC+00:00)

NOSS 2-2 (E) - Pass Details

Date: 15 November 2025
Orbit: 385 x 1723 km, 63.3° (Epoch: 12 December)

Event Time Altitude Azimuth Distance (km) Brightness Sun altitude
Exits shadow 02:22:20 40° 7° (N) 728 3.9 -22.1°
Maximum altitude 02:22:48 43° 30° (NNE) 712 4.0 -22.0°
Drops below altitude 10° 02:26:53 10° 103° (ESE) 1,965 7.2 -21.4°
Sets 02:29:37 0° 110° (ESE) 3,083 8.5 -21.0°
